Olivia, MN

11:39 PM CDT on August 21, 2017 (GMT -0500)
Olivia Regional

Weather History for KOVL - October, 2012

Change the Weather History Date:

Thursday, October 11, 2012

  Actual Average (KRWF) Record (KRWF)
Temperature  
Mean Temperature 42 °F -  
Max Temperature 53 °F 63 °F 90 °F (2015)
Min Temperature 30 °F 40 °F 22 °F (1987)
Degree Days  
Heating Degree Days 24    
Moisture  
Dew Point 26 °F    
Average Humidity 53    
Maximum Humidity 70    
Minimum Humidity 32    
Precipitation  
Precipitation 0.00 in - - ()
Sea Level Pressure  
Sea Level Pressure 30.13 in    
Wind  
Wind Speed 13 mph (NNW)    
Max Wind Speed 20 mph    
Max Gust Speed 25 mph    
Visibility 10 miles    
Events      
Averages and records for this station are not official NWS values.
T = Trace of Precipitation, MM = Missing Value Source: NWS Daily Summary

Daily Weather History Graph

Daily Weather History Graph

Search for Another Location

Airport or City:

Trip Planner

Search our weather history database for the weather conditions in past years. The results will help you decide how hot, cold, wet, or windy it might be!

Date:

Astronomy

Oct. 11, 2012 Rise Set
Actual Time 7:31 AM CDT 6:41 PM CDT
Civil Twilight 7:01 AM CDT 7:10 PM CDT
Nautical Twilight 6:27 AM CDT 7:44 PM CDT
Astronomical Twilight 5:53 AM CDT 8:18 PM CDT
Moon 3:00 AM CDT (10/11) 4:26 PM CDT (10/11)
Length of Visible Light 12h 09m
Length of Day
11h 10m
Waning Crescent, 18% of the Moon is Illuminated
Oct 11
Waning Crescent
Oct 15
New
Oct 21
First Quarter
Oct 29
Full
Nov 6
Last Quarter

Hourly Weather History & Observations

Time (CDT) Temp. Windchill Dew Point Humidity Pressure Visibility Wind Dir Wind Speed Gust Speed Precip Events Conditions
12:11 AM 53.6 °F - 32.0 °F 44% 29.78 in 10.0 mi SSW 16.1 mph 20.7 mph N/A   Scattered Clouds
12:32 AM 53.6 °F - 32.0 °F 44% 29.77 in 10.0 mi SW 15.0 mph - N/A   Clear
12:51 AM 53.6 °F - 30.2 °F 41% 29.77 in 10.0 mi SW 19.6 mph 24.2 mph N/A   Clear
1:11 AM 53.6 °F - 30.2 °F 41% 29.82 in 10.0 mi WNW 15.0 mph 21.9 mph N/A   Scattered Clouds
1:51 AM 53.6 °F - 32.0 °F 44% 29.82 in 10.0 mi West 9.2 mph - N/A   Scattered Clouds
2:11 AM 53.6 °F - 32.0 °F 44% 29.82 in 10.0 mi WSW 8.1 mph - N/A   Clear
2:51 AM 53.6 °F - 33.8 °F 47% 29.84 in 10.0 mi West 9.2 mph - N/A   Scattered Clouds
3:11 AM 53.6 °F - 33.8 °F 47% 29.84 in 10.0 mi WNW 11.5 mph 18.4 mph N/A   Scattered Clouds
3:31 AM 53.6 °F - 32.0 °F 44% 29.85 in 10.0 mi NW 10.4 mph - N/A   Scattered Clouds
3:52 AM 51.8 °F - 32.0 °F 47% 29.87 in 10.0 mi NW 12.7 mph - N/A   Scattered Clouds
4:11 AM 50.0 °F - 30.2 °F 47% 29.88 in 10.0 mi NNW 12.7 mph - N/A   Clear
4:31 AM 48.2 °F - 30.2 °F 50% 29.90 in 10.0 mi North 11.5 mph - N/A   Clear
4:51 AM 44.6 °F 38.4 °F 28.4 °F 53% 29.92 in 10.0 mi North 12.7 mph 16.1 mph N/A   Scattered Clouds
5:11 AM 42.8 °F 35.1 °F 30.2 °F 61% 29.94 in 10.0 mi North 16.1 mph 23.0 mph N/A   Scattered Clouds
5:31 AM 42.8 °F 34.3 °F 32.0 °F 66% 29.97 in 10.0 mi North 19.6 mph 25.3 mph N/A   Clear
5:51 AM 41.0 °F 33.5 °F 32.0 °F 70% 29.99 in 10.0 mi North 13.8 mph 23.0 mph N/A   Clear
6:11 AM 41.0 °F 34.3 °F 32.0 °F 70% 29.99 in 10.0 mi North 11.5 mph - N/A   Clear
6:31 AM 41.0 °F 35.8 °F 32.0 °F 70% 30.00 in 10.0 mi North 8.1 mph - N/A   Clear
6:51 AM 41.0 °F 34.3 °F 32.0 °F 70% 30.02 in 10.0 mi North 11.5 mph - N/A   Mostly Cloudy
7:11 AM 41.0 °F 33.5 °F 32.0 °F 70% 30.04 in 10.0 mi North 13.8 mph 19.6 mph N/A   Overcast
7:31 AM 41.0 °F 34.3 °F 32.0 °F 70% 30.05 in 10.0 mi North 11.5 mph 17.3 mph N/A   Overcast
7:51 AM 41.0 °F 33.5 °F 32.0 °F 70% 30.07 in 10.0 mi North 13.8 mph 17.3 mph N/A   Mostly Cloudy
8:11 AM 41.0 °F 34.3 °F 32.0 °F 70% 30.09 in 10.0 mi North 11.5 mph 18.4 mph N/A   Mostly Cloudy
8:31 AM 41.0 °F 33.5 °F 32.0 °F 70% 30.10 in 10.0 mi North 13.8 mph 18.4 mph N/A   Overcast
8:51 AM 41.0 °F 35.8 °F 32.0 °F 70% 30.12 in 10.0 mi North 8.1 mph 18.4 mph N/A   Mostly Cloudy
9:11 AM 41.0 °F 34.7 °F 32.0 °F 70% 30.13 in 10.0 mi North 10.4 mph - N/A   Clear
9:32 AM 41.0 °F 34.3 °F 32.0 °F 70% 30.13 in 10.0 mi North 11.5 mph 17.3 mph N/A   Clear
9:51 AM 41.0 °F 33.5 °F 32.0 °F 70% 30.15 in 10.0 mi North 13.8 mph 18.4 mph N/A   Clear
10:11 AM 42.8 °F 35.8 °F 32.0 °F 66% 30.16 in 10.0 mi North 13.8 mph - N/A   Clear
10:31 AM 44.6 °F 38.1 °F 32.0 °F 61% 30.17 in 10.0 mi North 13.8 mph 20.7 mph N/A   Clear
10:51 AM 42.8 °F 35.4 °F 32.0 °F 66% 30.18 in 10.0 mi North 15.0 mph 19.6 mph N/A   Clear
11:11 AM 46.4 °F 40.7 °F 32.0 °F 57% 30.18 in 10.0 mi North 12.7 mph 20.7 mph N/A   Clear
11:32 AM 46.4 °F 40.1 °F 30.2 °F 53% 30.19 in 10.0 mi North 15.0 mph 23.0 mph N/A   Scattered Clouds
11:51 AM 46.4 °F 40.1 °F 28.4 °F 50% 30.20 in 10.0 mi North 15.0 mph 19.6 mph N/A   Scattered Clouds
12:11 PM 48.2 °F - 28.4 °F 46% 30.21 in 10.0 mi NNW 15.0 mph 21.9 mph N/A   Clear
12:51 PM 46.4 °F 39.8 °F 23.0 °F 40% 30.21 in 10.0 mi North 16.1 mph 20.7 mph N/A   Clear
1:12 PM 48.2 °F - 24.8 °F 40% 30.21 in 10.0 mi North 15.0 mph 20.7 mph N/A   Clear
1:31 PM 48.2 °F - 23.0 °F 37% 30.21 in 10.0 mi NNW 11.5 mph 21.9 mph N/A   Clear
1:51 PM 48.2 °F - 23.0 °F 37% 30.22 in 10.0 mi NNW 15.0 mph 21.9 mph N/A   Clear
2:11 PM 50.0 °F - 21.2 °F 32% 30.22 in 10.0 mi NNW 13.8 mph 20.7 mph N/A   Clear
2:32 PM 46.4 °F 40.4 °F 19.4 °F 34% 30.22 in 10.0 mi North 13.8 mph 17.3 mph N/A   Clear
2:51 PM 46.4 °F 40.1 °F 19.4 °F 34% 30.23 in 10.0 mi NNW 15.0 mph 20.7 mph N/A   Clear
3:11 PM 48.2 °F - 21.2 °F 34% 30.24 in 10.0 mi NNW 15.0 mph 18.4 mph N/A   Clear
3:51 PM 50.0 °F - 21.2 °F 32% 30.24 in 10.0 mi NNW 17.3 mph 21.9 mph N/A   Clear
4:11 PM 46.4 °F 40.7 °F 21.2 °F 37% 30.25 in 10.0 mi NNW 12.7 mph 17.3 mph N/A   Clear
5:31 PM 46.4 °F 40.7 °F 17.6 °F 32% 30.26 in 10.0 mi NNW 12.7 mph - N/A   Clear
5:51 PM 46.4 °F 40.7 °F 19.4 °F 34% 30.26 in 10.0 mi NNW 12.7 mph - N/A   Clear
6:31 PM 42.8 °F 36.6 °F 17.6 °F 36% 30.28 in 10.0 mi NNW 11.5 mph - N/A   Clear
6:51 PM 41.0 °F 34.3 °F 17.6 °F 39% 30.29 in 10.0 mi NNW 11.5 mph - N/A   Clear
7:11 PM 39.2 °F 32.0 °F 19.4 °F 45% 30.30 in 10.0 mi NNW 11.5 mph - N/A   Clear
7:31 PM 37.4 °F 30.3 °F 19.4 °F 48% 30.31 in 10.0 mi NNW 10.4 mph - N/A   Clear
7:51 PM 35.6 °F 29.2 °F 19.4 °F 52% 30.32 in 10.0 mi NNW 8.1 mph - N/A   Clear
8:11 PM 33.8 °F 27.0 °F 19.4 °F 56% 30.33 in 10.0 mi NNW 8.1 mph - N/A   Clear
8:31 PM 33.8 °F 28.6 °F 19.4 °F 56% 30.33 in 10.0 mi NNW 5.8 mph - N/A   Clear
8:51 PM 33.8 °F 28.6 °F 19.4 °F 56% 30.34 in 10.0 mi NNW 5.8 mph - N/A   Clear
9:11 PM 32.0 °F 26.4 °F 19.4 °F 60% 30.35 in 10.0 mi NNW 5.8 mph - N/A   Clear
9:31 PM 30.2 °F 24.3 °F 17.6 °F 60% 30.35 in 10.0 mi NNW 5.8 mph - N/A   Clear
9:51 PM 32.0 °F 27.5 °F 19.4 °F 60% 30.36 in 10.0 mi NW 4.6 mph - N/A   Clear
10:10 PM 32.0 °F 27.5 °F 19.4 °F 60% 30.36 in 10.0 mi NW 4.6 mph - N/A   Clear
10:31 PM 30.2 °F 24.3 °F 17.6 °F 60% 30.38 in 10.0 mi NNW 5.8 mph - N/A   Clear
10:51 PM 30.2 °F 23.4 °F 17.6 °F 60% 30.38 in 10.0 mi NNW 6.9 mph - N/A   Clear
11:11 PM 30.2 °F 25.4 °F 19.4 °F 64% 30.39 in 10.0 mi NNW 4.6 mph - N/A   Clear
11:31 PM 30.2 °F 26.7 °F 19.4 °F 64% 30.40 in 10.0 mi NW 3.5 mph - N/A   Clear
11:51 PM 30.2 °F 25.4 °F 19.4 °F 64% 30.40 in 10.0 mi NW 4.6 mph - N/A   Clear